Regional Weather Roundup
Issued by NWS

Home | Current Version | Previous Version | Text Only | Print | Product List | Glossary On
Versions: 1 2 3 4 5 6 7 8 9 10 11 12 13 14 15 16 17 18 19 20 21 22 23 24 25 26 27 28 29 30 31 32 33 34 35 36 37 38 39 40 41 42 43 44 45 46 47 48 49 50
000
ASUS43 KOAX 010602
RWRNE

WEATHER ROUNDUP FOR NEBRASKA
NATIONAL WEATHER SERVICE OMAHA NE
100 AM CDT SUN MAY 01 2016

NOTES: SATELLITE DATA IS BEING USED TO AUGMENT CLOUD COVER ABOVE
       12000 FEET.
       "FAIR" INDICATES FEW OR NO CLOUDS BELOW 12,000 FEET WITH NO
       SIGNIFICANT WEATHER AND/OR OBSTRUCTIONS TO VISIBILITY.

  * THESE STATIONS DO NOT REPORT WEATHER SUCH AS RAIN...SNOW OR FOG.

NEZ001>004-019>022-054>056-010700-
NEBRASKA PANHANDLE

CITY           SKY/WX    TMP DP  RH WIND       PRES   REMARKS
SCOTTSBLUFF    LGT RAIN  37  34  89 N12       30.20R WCI  29
6HR MIN TEMP:  37; 6HR MAX TEMP:  38; 6HR PCP:  0.05;

ALLIANCE       MIX PCPN  34  33  96 N14       30.16R WCI  25
6HR MIN TEMP:  33; 6HR MAX TEMP:  34; 6HR PCP:  0.14;

CHADRON        LGT RAIN  41  37  86 CALM      30.21R
6HR MIN TEMP:  41; 6HR MAX TEMP:  46; 6HR PCP:  0.06;

KIMBALL        LGT SNOW  33  33  99 N18G25    30.16R WCI  22
SIDNEY         FLURRIES  34  32  92 N21       30.13R WCI  22
6HR MIN TEMP:  33; 6HR MAX TEMP:  34; 6HR PCP: TRACE;

$$

NEZ057>060-069>072-079>082-010700-
SOUTHWEST NEBRASKA

CITY           SKY/WX    TMP DP  RH WIND       PRES   REMARKS
NORTH PLATTE   LGT SNOW  33  32  96 N14       30.03R FOG     WCI  23
6HR MIN TEMP:  33; 6HR MAX TEMP:  36; 6HR PCP:  0.17;

IMPERIAL       CLOUDY    35  33  92 N18       30.07R FOG     WCI  24
6HR MIN TEMP:  34; 6HR MAX TEMP:  36; 6HR PCP:  0.04;

LEXINGTON      LGT RAIN  41  38  89 N18G25    29.97R
MCCOOK         CLOUDY    38  35  89 N20       29.99S WCI  28
6HR MIN TEMP:  38; 6HR MAX TEMP:  39;

$$

NEZ005>010-023>029-035>040-094-010700-
NORTH CENTRAL NEBRASKA

CITY           SKY/WX    TMP DP  RH WIND       PRES   REMARKS
VALENTINE      LGT RAIN  39  35  86 NE17G25   30.14R WCI  30
6HR MIN TEMP:  38; 6HR MAX TEMP:  39; 6HR PCP:  0.15;

AINSWORTH      DRIZZLE   39  38  97 NE22G31   30.10R WCI  29
BROKEN BOW     LGT RAIN  40  38  93 N18G24    29.99R FOG     WCI  31
6HR MIN TEMP:  40; 6HR MAX TEMP:  42; 6HR PCP:  0.20;

ORD            LGT RAIN  41  38  89 NE17      29.98R
6HR MIN TEMP:  41; 6HR MAX TEMP:  44; 6HR PCP:  0.14;

$$

NEZ041-046>049-061>064-073>077-083>087-010700-
SOUTH CENTRAL NEBRASKA

CITY           SKY/WX    TMP DP  RH WIND       PRES   REMARKS
GRAND ISLAND   LGT RAIN  43  42  97 N18       29.92R FOG
6HR MIN TEMP:  43; 6HR MAX TEMP:  47; 6HR PCP:  0.09;

AURORA         DRIZZLE   45  45  99 N15       29.90R
HASTINGS       CLOUDY    44  42  93 N16       29.90R
6HR MIN TEMP:  44; 6HR MAX TEMP:  47; 6HR PCP:  0.01;

KEARNEY *      CLOUDY    43  39  87 N18       29.93R
YORK           LGT RAIN  46  46 100 N16       29.89R
$$

NEZ011>018-030>034-042>045-010700-
NORTHEAST NEBRASKA

CITY           SKY/WX    TMP DP  RH WIND       PRES   REMARKS
NORFOLK        LGT RAIN  43  40  89 NE15      29.97R
6HR MIN TEMP:  43; 6HR MAX TEMP:  45; 6HR PCP:  0.11;

ALBION         LGT RAIN  42  40  94 NE16G25   29.97R
BLAIR          LGT RAIN  46  45  96 NE16      29.91R
COLUMBUS *     CLOUDY    45  37  76 NE17G24   29.93R
FREMONT        DRIZZLE   46  45  99 NE12      29.92R
TEKAMAH        LGT RAIN  45  43  93 NE16      29.95R
6HR MIN TEMP:  45; 6HR MAX TEMP:  48; 6HR PCP:  0.05;

$$

NEZ050>053-065>068-078-088>093-010700-
SOUTHEAST NEBRASKA

CITY           SKY/WX    TMP DP  RH WIND       PRES   REMARKS
LINCOLN        CLOUDY    50  48  93 NE9       29.88R
6HR MIN TEMP:  50; 6HR MAX TEMP:  52; 6HR PCP:  0.03;

OMAHA EPPLEY   DRIZZLE   48  46  93 NE10G16   29.91R
6HR MIN TEMP:  48; 6HR MAX TEMP:  50; 6HR PCP:  0.02;

FALLS CITY     CLOUDY    53  49  86 W5        29.87R
6HR MIN TEMP:  53; 6HR MAX TEMP:  60;

NEBRASKA CITY  CLOUDY    51  51 100 E3        29.87S FOG
$$

NEZ044-045-051>053-067-010700-
OMAHA AREA

CITY           SKY/WX    TMP DP  RH WIND       PRES   REMARKS
OMAHA EPPLEY   DRIZZLE   48  46  93 NE10G16   29.91R
6HR MIN TEMP:  48; 6HR MAX TEMP:  50; 6HR PCP:  0.02;

BLAIR          LGT RAIN  46  45  96 NE16      29.91R
FREMONT        DRIZZLE   46  45  99 NE12      29.92R
OFFUTT AFB     CLOUDY    49  49  99 NE13      29.89R
WAHOO          LGT RAIN  47  46  95 NE16G23   29.89R
$$




USA.gov is the U.S. government's official web portal to all federal, state and local government web resources and services.